sat.trackr.live / text

‹ back to catalog

FENGYUN 3A

NORAD 32958 · 2008-026A

PAYLOAD ACTIVE UNKNOWN

§ Identity

Operator
Country
PRC
Launch date
2008-05-27
Launch site
TAISC
Launch vehicle
Mass (kg)
RCS (m²)
6.58

Purposes: earth_obs

External: N2YO · Heavens-Above · Gunter

§ Orbital elements

Epoch: 2026-05-24T20:35:47.107968Z

Period
101.44 min
Inclination
98.6876°
Eccentricity
0.0008400
Mean motion
14.19565610 rev/d
Perigee alt
820.8 km
Apogee alt
832.9 km
Semi-major
7,205.0 km
B*
5.2176e-5
RAAN
86.1291°
Arg perigee
188.1295°
Mean anomaly
171.9746°
Rev number
93,209

§ Raw data

FENGYUN 3A1 32958U 08026A   26144.85818412  .00000067  00000+0  52176-4 0  99942 32958  98.6876  86.1291 0008400 188.1295 171.9746 14.19565610932092

JSON: /api/v1/satellites/32958 · /tle

For live sub-satellite position, see the globe view (requires WebGL).

§ Visibility from observer

Set your observer location to see the next 7 days of passes ≥ 10°. The values pass through the URL so the page stays shareable.

No JS? Fill the form by hand. The geolocation button needs JavaScript.

§ Radio — SatNOGS DB

ModeDescriptionDownlinkUplink
AHRPT AHRPT 1704.5 GHz 1.705 GHz
AHRPT AHRPT Downlink 1.705 GHz
PSK MPT 7.775 GHz
QPSK Mode X 8.146 GHz
FM S-band telemetry 2.265 GHz

5 transmitters · refreshed weekly from db.satnogs.org